Temp
11 11 11 12 12 12 13 13 13 13 13 13 13 13 12 11 12 12 12 12 12 12 12 12 12 12 13 13 13 13 13 13 12 12 12 11 11 11 11 11 10 10 11 11 11
11 11 11 12 12 12 13 13 13 13 13 13 13 13 12 12 12 12 12 11 11 11 11 12 12 13 13 13 13 13 13 13 13 13 12 11 11 11 11 11 11 11 11 11 11
11 11 12 12 12 12 13 13 13 13 13 13 13 13 13 12 12 12 12 11 11 11 11 12 12 13 13 14 14 14 13 13 13 13 13 12 11 11 10 10 10 11 11 11 11
11 12 12 12 12 12 13 13 13 13 13 13 13 13 13 12 12 12 12 12 12 12 12 12 13 13 13 13 14 13 13 14 13 13 13 12 11 11 10 11 10 10 11 11 11
12 12 12 12 12 12 13 13 13 13 13 13 13 13 13 12 13 12 12 12 12 12 12 12 12 12 13 13 14 13 13 14 13 13 12 12 11 11 11 11 11 10 10 11 11
12 12 12 12 13 13 13 13 13 13 13 13 13 13 12 13 13 12 12 12 13 12 12 12 12 13 13 14 14 13 14 14 13 13 13 12 12 11 11 11 11 9 10 10 10
12 12 12 12 13 13 13 13 13 13 13 13 13 13 12 13 13 12 12 12 13 13 13 13 12 13 13 13 13 13 13 13 13 13 13 12 12 12 11 11 10 9 10 10 10
12 12 12 12 13 13 13 13 13 13 13 13 13 12 12 12 13 12 13 13 12 13 13 13 13 13 13 13 13 13 12 12 12 12 12 12 12 12 11 11 10 10 9 9 9
12 12 12 12 13 13 13 13 13 13 13 13 13 12 12 12 13 12 12 12 13 13 13 14 14 13 13 13 13 13 12 12 12 12 12 12 12 12 11 11 10 10 9 9 9
12 12 12 12 13 13 13 13 13 13 13 13 13 12 12 12 13 12 12 12 13 13 13 13 14 14 13 13 14 13 13 13 13 13 13 13 13 13 12 11 11 11 10 9 9
11 12 12 12 12 13 13 13 13 13 13 13 13 12 13 12 12 12 12 12 12 13 13 13 14 14 14 14 14 14 14 13 14 14 14 13 13 13 13 12 12 11 11 10 9
11 12 12 11 12 12 13 13 13 13 13 13 13 13 13 13 13 12 11 12 12 13 13 14 14 14 15 15 15 15 15 14 14 14 13 13 13 13 13 13 12 12 11 11 10
11 11 12 11 12 12 12 12 12 12 12 13 12 12 12 12 12 12 11 12 12 12 13 14 14 15 15 16 16 16 15 15 15 14 14 14 13 14 14 13 12 12 11 11 11
11 11 11 11 11 12 12 12 12 12 13 13 12 12 12 12 12 12 12 12 12 12 13 14 14 15 15 16 16 16 15 15 15 15 15 14 16 14 14 14 13 12 12 11 11
11 11 11 11 11 11 12 12 12 12 12 13 12 13 12 12 12 12 12 12 12 13 13 14 14 15 15 15 15 15 15 16 15 14 14 14 14 13 15 15 13 12 11 11 11
11 11 11 11 11 11 11 11 11 11 11 12 12 12 12 12 12 12 12 12 12 13 13 13 14 14 15 15 15 15 15 15 15 15 15 14 14 13 14 14 14 13 11 11 11
11 11 11 11 10 11 11 10 10 10 12 11 11 12 12 12 12 12 12 12 12 12 13 13 14 14 14 14 14 14 14 15 15 15 16 13 12 11 12 12 13 14 13 11 10
10 11 11 10 10 10 10 9 9 10 11 11 11 12 12 12 12 12 12 12 12 12 13 13 14 13 13 14 14 14 14 15 14 15 15 10 12 9 12 12 13 13 13 11 10
10 10 10 10 9 9 9 8 9 10 10 10 11 12 12 12 12 12 12 12 12 12 13 13 13 13 13 14 14 14 13 14 13 11 12 10 9 9 10 11 12 12 11 10 10
9 9 9 9 9 9 8 8 8 9 10 9 10 11 12 12 12 12 12 12 12 12 12 13 13 13 13 13 13 13 13 13 13 12 13 10 9 10 10 10 11 11 11 10 9
8 8 8 9 8 8 8 8 8 9 9 10 10 10 10 11 12 12 12 12 12 13 13 13 13 12 12 12 13 13 12 13 13 11 13 12 11 10 10 9 9 9 9 9 8
7 7 7 8 8 8 7 7 7 8 8 9 9 10 10 10 11 12 12 12 12 13 13 13 13 12 11 12 12 12 12 12 13 10 10 10 9 8 8 9 9 11 11 10 10
7 7 7 7 6 7 7 7 7 7 7 8 8 9 10 10 10 11 12 12 12 12 12 13 12 10 10 11 11 11 12 12 12 12 10 12 9 8 7 8 8 9 9 9 9
6 6 6 6 6 6 6 7 7 7 7 8 9 9 9 10 10 11 12 12 12 12 12 13 13 13 13 12 11 11 11 11 11 11 11 10 10 8 7 7 7 8 8 8 8
6 6 6 6 6 6 6 6 6 7 7 8 8 9 10 10 11 11 11 12 12 12 12 12 12 12 12 12 12 11 10 10 10 10 11 11 10 9 7 7 7 7 7 7 7
6 5 5 5 6 6 6 6 7 7 7 7 8 8 9 10 11 12 12 12 12 11 12 12 11 11 10 9 9 9 9 9 9 10 10 10 9 9 7 7 6 6 6 6 6
5 5 5 5 6 6 6 6 6 7 6 8 8 8 10 9 10 11 11 11 11 11 11 11 11 9 8 8 8 8 8 8 9 9 9 9 10 9 7 6 5 6 6 6 6
Height
3162 3162 3161 3161 3162 3162 3163 3163 3164 3165 3165 3166 3166 3168 3169 3169 3170 3171 3172 3172 3170 3171 3171 3173 3175 3177 3178 3180 3181 3182 3184 3184 3185 3186 3188 3189 3189 3188 3189 3190 3192 3195 3197 3199 3200
3160 3160 3160 3160 3160 3161 3161 3162 3163 3164 3164 3165 3166 3167 3169 3170 3171 3173 3174 3171 3172 3173 3173 3175 3176 3178 3179 3181 3183 3184 3185 3186 3187 3188 3190 3190 3191 3191 3191 3192 3194 3196 3198 3200 3203
3159 3159 3159 3159 3159 3159 3160 3160 3161 3163 3163 3164 3166 3167 3169 3171 3173 3175 3174 3173 3174 3175 3174 3176 3178 3180 3181 3182 3185 3185 3187 3188 3189 3190 3191 3191 3191 3193 3193 3194 3196 3198 3200 3202 3204
3159 3158 3159 3158 3158 3158 3158 3159 3160 3161 3162 3164 3166 3167 3169 3172 3176 3175 3175 3175 3176 3177 3176 3177 3179 3181 3182 3183 3185 3186 3188 3190 3191 3192 3192 3193 3193 3194 3195 3196 3196 3199 3203 3204 3205
3158 3158 3158 3157 3157 3157 3157 3158 3159 3160 3161 3163 3165 3167 3170 3172 3174 3176 3177 3177 3177 3179 3179 3179 3180 3182 3184 3186 3187 3188 3188 3190 3192 3193 3194 3195 3196 3197 3197 3197 3197 3199 3203 3205 3207
3157 3157 3157 3157 3156 3156 3156 3157 3158 3159 3161 3162 3165 3167 3170 3173 3174 3176 3178 3179 3179 3180 3181 3181 3181 3183 3185 3187 3188 3188 3189 3191 3192 3194 3195 3196 3197 3198 3199 3199 3200 3203 3206 3208 3208
3156 3156 3156 3156 3155 3155 3155 3157 3158 3158 3160 3162 3165 3167 3170 3173 3175 3176 3178 3178 3181 3182 3183 3183 3183 3185 3186 3187 3189 3190 3191 3192 3193 3195 3196 3196 3198 3200 3201 3201 3202 3204 3207 3209 3210
3155 3155 3155 3155 3154 3154 3154 3156 3157 3158 3160 3161 3164 3167 3170 3171 3174 3177 3180 3180 3181 3183 3184 3184 3185 3186 3188 3190 3190 3192 3193 3193 3195 3196 3197 3199 3200 3201 3202 3203 3203 3206 3208 3210 3211
3154 3155 3154 3154 3154 3154 3154 3156 3157 3158 3160 3161 3164 3167 3170 3171 3173 3176 3179 3181 3182 3183 3184 3186 3188 3189 3191 3191 3192 3193 3194 3195 3196 3196 3198 3200 3200 3201 3202 3203 3204 3206 3209 3211 3212
3154 3154 3154 3153 3153 3154 3154 3155 3157 3159 3160 3161 3164 3169 3169 3170 3172 3174 3177 3180 3182 3183 3185 3187 3188 3189 3190 3192 3193 3193 3193 3194 3195 3197 3197 3199 3200 3201 3203 3204 3205 3207 3209 3211 3213
3152 3153 3153 3153 3153 3154 3155 3156 3160 3160 3160 3161 3162 3164 3166 3169 3171 3173 3176 3179 3182 3184 3186 3186 3188 3189 3191 3191 3192 3192 3194 3195 3195 3196 3197 3199 3201 3202 3203 3204 3205 3207 3209 3211 3214
3150 3151 3152 3152 3152 3154 3155 3156 3157 3159 3160 3161 3162 3164 3165 3167 3170 3172 3175 3179 3180 3183 3185 3188 3188 3189 3189 3189 3190 3191 3192 3193 3194 3195 3197 3198 3201 3201 3203 3206 3207 3208 3210 3213 3215
3149 3148 3149 3150 3151 3153 3154 3155 3156 3157 3159 3161 3162 3163 3165 3167 3167 3170 3173 3175 3178 3181 3183 3185 3187 3188 3188 3188 3189 3189 3190 3192 3193 3194 3196 3197 3199 3200 3202 3204 3206 3208 3211 3213 3215
3146 3146 3146 3148 3151 3150 3153 3154 3155 3156 3158 3159 3159 3162 3164 3165 3167 3168 3170 3174 3176 3179 3181 3183 3185 3186 3187 3188 3189 3189 3190 3191 3193 3194 3196 3196 3197 3198 3199 3201 3204 3207 3209 3211 3214
3144 3143 3143 3144 3146 3147 3151 3152 3153 3156 3156 3155 3155 3158 3160 3164 3165 3166 3168 3170 3174 3176 3180 3181 3182 3184 3185 3187 3188 3189 3190 3191 3192 3193 3194 3196 3199 3194 3196 3198 3200 3204 3207 3210 3213
3141 3140 3140 3141 3143 3146 3147 3149 3152 3157 3152 3151 3151 3153 3157 3160 3163 3165 3167 3170 3172 3174 3176 3178 3180 3182 3183 3185 3187 3188 3190 3191 3192 3193 3194 3193 3196 3194 3193 3194 3196 3198 3202 3208 3210
3139 3138 3137 3138 3140 3142 3145 3148 3152 3150 3149 3150 3150 3151 3154 3157 3161 3163 3165 3167 3170 3172 3174 3176 3178 3180 3182 3183 3185 3186 3189 3190 3190 3190 3189 3191 3193 3192 3191 3190 3190 3194 3196 3202 3208
3136 3135 3135 3135 3136 3139 3142 3147 3147 3144 3145 3146 3147 3150 3152 3155 3157 3159 3162 3165 3167 3170 3171 3174 3177 3178 3180 3181 3183 3184 3186 3188 3188 3186 3188 3189 3190 3188 3188 3188 3187 3187 3191 3198 3204
3133 3132 3132 3132 3134 3136 3141 3143 3143 3143 3144 3144 3145 3147 3149 3152 3156 3157 3160 3162 3164 3167 3171 3171 3174 3175 3177 3178 3180 3180 3183 3185 3185 3188 3189 3190 3188 3187 3186 3186 3186 3186 3188 3192 3199
3131 3130 3130 3130 3131 3134 3138 3139 3140 3141 3143 3144 3145 3145 3146 3148 3153 3155 3157 3160 3161 3164 3166 3168 3172 3173 3175 3176 3178 3179 3182 3184 3185 3186 3184 3186 3186 3185 3185 3185 3186 3187 3187 3190 3194
3129 3129 3129 3129 3131 3133 3134 3137 3139 3140 3142 3144 3144 3144 3144 3145 3148 3151 3154 3157 3159 3161 3163 3166 3168 3173 3173 3174 3175 3177 3178 3180 3181 3182 3180 3181 3183 3181 3182 3183 3183 3184 3186 3189 3192
3128 3129 3129 3129 3131 3130 3132 3134 3136 3137 3139 3139 3141 3143 3144 3144 3145 3148 3152 3154 3156 3158 3160 3163 3165 3168 3171 3171 3173 3174 3176 3177 3178 3179 3178 3179 3181 3179 3181 3182 3182 3183 3183 3186 3188
3126 3128 3128 3129 3131 3131 3132 3132 3132 3133 3135 3136 3136 3139 3141 3143 3145 3145 3149 3152 3154 3157 3159 3161 3163 3167 3172 3174 3172 3173 3173 3174 3175 3175 3175 3177 3179 3177 3180 3181 3182 3183 3185 3187 3188
3126 3127 3128 3129 3130 3131 3131 3130 3130 3130 3129 3130 3131 3134 3136 3138 3141 3142 3146 3149 3153 3155 3157 3159 3160 3162 3165 3167 3169 3171 3171 3172 3172 3173 3172 3172 3171 3173 3176 3179 3181 3182 3184 3186 3188
3124 3125 3126 3127 3129 3129 3128 3128 3126 3125 3125 3125 3125 3126 3132 3134 3136 3138 3142 3146 3150 3152 3155 3157 3158 3160 3162 3164 3166 3167 3168 3169 3169 3170 3170 3170 3169 3171 3173 3176 3179 3181 3182 3184 3186
3123 3123 3124 3126 3127 3128 3127 3126 3122 3120 3120 3120 3120 3123 3127 3130 3132 3132 3136 3142 3145 3149 3152 3154 3157 3159 3161 3162 3164 3166 3167 3167 3167 3167 3167 3168 3168 3169 3172 3174 3177 3179 3181 3182 3183
3119 3120 3122 3124 3126 3127 3127 3125 3121 3118 3117 3115 3116 3119 3122 3126 3130 3133 3137 3141 3143 3147 3150 3153 3155 3159 3162 3162 3164 3166 3163 3163 3163 3164 3165 3165 3166 3166 3169 3172 3175 3176 3177 3178 3179
Wind_Speed
6 7 8 8 8 8 8 8 7 4 4 3 4 5 7 8 8 6 4 2 7 7 8 7 7 5 7 9 8 6 9 10 11 9 8 9 11 11 10 11 15 17 14 15 16
5 5 6 7 7 7 7 7 7 5 4 4 5 7 10 10 8 8 6 9 6 8 2 11 8 8 5 8 7 8 7 8 11 10 8 9 9 11 9 9 13 14 16 16 15
4 4 5 5 5 6 6 6 6 5 5 5 7 10 12 12 8 10 11 16 16 15 12 10 10 7 9 11 7 5 5 6 9 14 10 9 10 12 9 6 5 5 15 15 14
3 4 4 4 4 4 5 5 6 5 5 6 9 12 14 13 8 13 15 15 17 14 11 11 9 10 12 11 9 7 2 3 8 12 15 13 10 10 11 3 8 12 12 11 13
3 3 4 4 4 4 3 5 5 5 6 8 11 14 16 15 11 16 15 17 16 14 14 10 10 11 11 8 8 2 2 7 8 8 8 10 9 8 9 7 15 20 15 14 14
3 3 3 3 4 3 3 4 5 6 6 9 13 16 17 13 15 19 17 16 15 12 14 12 7 13 11 8 6 3 6 8 6 3 3 4 6 8 8 10 17 17 17 14 15
3 3 3 3 3 3 3 5 6 6 7 9 15 18 16 13 16 20 18 17 14 11 9 10 14 16 12 7 7 8 5 3 5 2 2 1 1 3 4 10 15 18 17 15 16
3 3 3 3 3 3 4 5 6 7 7 9 16 19 16 14 17 21 18 15 12 10 9 8 14 13 9 8 5 4 6 4 4 5 3 5 2 2 3 6 14 16 16 15 18
4 4 4 4 4 3 3 5 7 7 8 10 16 20 14 14 14 21 21 15 11 9 8 9 10 12 10 8 3 3 1 6 6 8 5 6 3 4 4 8 12 14 14 21 19
5 4 4 5 5 2 2 5 7 7 9 12 16 18 15 13 17 19 23 19 13 9 7 7 5 4 8 10 2 1 3 3 5 5 8 3 4 5 6 6 10 12 17 20 18
7 6 5 6 5 2 1 4 6 8 10 15 17 16 18 16 18 20 24 24 20 11 12 11 8 7 4 5 7 8 6 4 5 6 5 4 3 2 6 9 10 14 15 17 20
8 7 6 7 7 3 2 4 5 7 11 14 14 12 14 16 18 24 26 26 22 18 13 15 14 7 7 8 9 10 10 7 5 3 4 6 4 4 3 4 6 7 13 17 22
7 8 8 9 9 7 7 5 6 2 7 14 11 14 11 12 15 26 27 26 23 21 17 17 11 9 10 11 10 11 10 6 6 9 8 6 8 11 9 8 13 11 11 15 18
7 8 9 11 13 11 10 10 9 6 5 10 17 16 14 14 14 20 24 23 23 19 19 17 15 10 10 9 8 6 5 7 7 8 5 9 1 4 12 13 13 16 17 16 18
8 8 9 13 15 15 12 10 8 4 2 6 16 16 15 19 10 15 16 18 14 14 17 13 12 12 13 12 7 4 6 5 4 8 5 7 5 8 8 13 18 18 13 22 24
10 6 10 11 15 16 14 12 8 5 6 6 14 19 19 21 10 15 18 15 16 12 11 12 11 12 14 12 9 7 8 6 6 7 7 7 8 5 9 13 15 21 23 19 24
12 8 9 10 13 16 16 13 7 7 5 6 14 17 18 19 16 10 19 19 14 10 10 11 11 9 12 11 10 9 7 4 5 6 7 10 7 7 8 15 18 21 24 26 19
11 10 7 8 12 16 17 17 9 6 8 9 14 19 19 19 20 17 14 19 17 12 10 13 11 11 8 10 9 10 10 8 6 6 3 4 5 4 8 9 13 13 17 24 24
13 9 7 6 10 16 20 19 6 7 9 8 13 16 19 22 15 20 19 17 14 15 12 15 9 14 11 8 8 6 9 13 9 3 3 3 3 5 6 4 3 8 18 21 30
9 7 5 5 9 16 23 21 12 8 6 8 4 11 18 22 19 21 18 16 13 16 14 11 11 14 12 8 7 8 9 4 6 6 6 4 3 5 5 7 5 5 13 19 26
6 1 2 3 7 13 26 23 18 14 9 8 6 2 4 15 24 21 13 12 17 15 15 12 10 13 11 8 10 9 10 7 6 4 3 4 4 11 8 10 7 9 14 19 23
2 1 1 3 5 10 17 16 20 20 18 14 10 7 4 6 12 23 19 16 18 15 17 15 10 12 10 7 10 11 10 10 8 6 6 3 4 15 13 14 10 11 14 16 18
2 4 5 4 4 5 6 9 15 22 21 27 23 16 11 5 5 17 20 20 18 17 14 16 12 11 5 5 7 8 10 11 11 8 9 6 4 17 16 15 15 13 14 14 13
5 6 8 7 5 5 7 9 10 10 13 16 24 24 20 17 9 11 22 22 18 19 18 17 13 12 12 8 9 9 10 9 12 7 8 11 11 23 21 20 20 19 18 17 16
5 10 8 5 5 4 6 5 9 13 15 15 21 26 22 19 15 18 21 24 24 22 19 17 16 12 11 10 11 12 12 8 7 9 9 10 15 26 27 24 23 21 19 18 17
5 7 11 9 6 6 5 11 18 14 15 17 21 13 24 20 19 23 24 27 29 24 19 14 10 11 8 8 7 7 8 8 8 8 9 9 13 27 29 27 25 23 21 19 19
6 8 11 10 7 2 4 6 7 5 9 10 18 15 21 18 17 20 27 25 23 21 15 10 10 9 4 8 7 7 11 12 13 11 11 12 16 24 31 28 24 21 20 19 20
Wind_Direction
277 273 269 265 262 259 256 258 261 257 258 224 183 158 142 148 146 132 105 182 187 189 206 181 152 133 121 134 142 100 105 104 112 123 122 122 86 106 108 136 156 162 162 161 158
291 282 275 271 264 258 249 248 249 236 234 210 174 162 150 158 152 109 94 76 101 125 185 196 160 141 129 147 145 140 110 97 79 83 112 108 100 71 108 142 153 159 161 164 159
306 299 290 277 271 260 246 240 241 222 212 194 171 163 159 165 148 113 116 96 81 78 96 139 148 156 160 169 160 155 145 108 82 94 82 90 107 66 96 113 162 162 155 160 158
307 306 299 289 276 263 248 234 232 212 193 183 168 164 164 164 147 135 121 108 93 89 84 101 133 164 166 173 171 147 197 161 102 100 81 80 83 66 59 90 161 151 155 151 147
307 306 295 287 281 268 248 234 218 207 187 179 168 165 166 169 155 145 140 118 96 87 81 109 125 156 169 169 161 163 137 149 109 111 101 90 89 75 71 110 146 145 155 154 156
304 304 297 293 284 264 241 225 211 198 184 179 171 168 170 170 157 148 145 126 109 93 85 84 114 162 163 155 153 166 140 150 130 95 109 66 50 66 55 105 135 145 157 140 137
300 300 302 302 290 265 227 209 204 192 179 181 172 170 173 168 165 159 154 144 133 126 103 93 121 148 153 132 133 152 139 175 173 180 157 96 339 60 67 116 146 151 159 144 127
290 286 291 291 285 261 226 203 193 188 178 177 173 171 178 177 168 169 167 158 151 148 129 105 114 138 140 146 137 142 141 166 193 187 196 185 17 201 92 130 153 169 170 149 134
285 278 280 281 282 277 228 200 191 180 176 176 175 173 171 179 179 176 177 168 165 171 155 132 139 162 155 151 143 179 285 205 203 208 238 193 25 154 163 137 158 171 173 154 143
285 268 265 273 286 291 221 193 190 182 176 171 176 176 191 189 189 186 188 187 176 189 193 186 187 188 201 202 190 204 229 240 241 241 229 235 249 32 169 138 152 168 166 170 160
289 267 245 257 264 267 169 184 184 189 189 179 185 187 194 198 197 190 195 201 200 195 202 214 211 216 217 232 252 273 272 258 272 270 241 246 251 222 164 168 165 170 174 173 160
298 271 247 244 250 217 168 165 190 203 196 197 189 194 198 203 200 192 195 205 205 207 215 220 222 223 246 264 259 248 255 256 226 195 214 222 218 219 178 147 120 162 172 167 168
296 280 247 230 248 232 202 198 187 188 212 212 205 204 202 203 199 196 198 208 214 215 217 222 220 208 238 256 208 218 244 208 194 192 201 212 241 233 227 200 188 163 165 177 178
293 274 254 231 236 246 230 228 222 242 236 226 217 208 207 193 192 195 210 217 220 223 221 228 215 214 208 171 155 160 160 183 211 190 195 203 213 228 233 234 222 194 173 167 164
311 276 256 233 229 235 245 238 242 227 273 208 202 204 200 196 193 187 189 202 195 193 201 204 207 225 192 198 192 185 171 165 174 193 199 211 231 266 257 239 236 232 209 169 165
322 298 264 243 229 227 233 231 227 205 245 204 186 200 200 202 201 201 198 196 186 195 193 191 181 184 194 194 210 210 208 215 229 227 240 228 215 265 260 252 236 227 221 201 178
326 314 276 248 228 222 220 213 202 209 210 190 194 197 205 205 193 196 203 203 204 205 203 191 184 178 180 184 187 196 190 223 232 222 252 232 211 227 252 254 253 226 222 211 202
324 315 297 255 231 218 206 196 217 230 193 191 197 206 210 202 206 209 204 205 216 224 210 190 185 186 178 192 204 214 218 230 246 238 218 190 218 232 256 265 256 244 212 207 206
326 317 300 252 223 213 202 196 224 232 217 216 213 205 211 210 213 210 212 214 228 210 202 198 181 186 179 184 199 213 211 227 224 189 215 196 259 250 284 264 283 201 177 190 199
321 315 305 254 217 204 200 208 225 223 224 222 222 210 211 211 209 206 206 219 209 199 198 191 183 191 189 184 193 208 208 187 196 181 228 186 218 231 220 212 250 200 179 183 200
317 345 0 230 209 201 206 214 227 236 226 222 199 157 214 215 213 213 214 215 209 210 199 198 190 182 183 193 188 182 194 202 193 187 230 193 204 199 208 201 199 200 188 190 206
273 213 184 174 175 198 212 219 234 237 236 232 227 217 298 269 224 219 220 210 199 189 189 194 186 162 166 176 192 201 208 209 226 216 205 227 202 188 192 185 190 202 185 183 198
257 204 185 176 162 184 216 230 249 253 259 251 251 244 257 252 215 209 208 212 203 190 182 179 167 131 136 169 194 196 211 212 220 224 203 213 197 188 186 182 178 184 170 177 183
237 215 213 225 249 277 296 288 278 261 259 237 245 250 245 246 250 209 206 214 209 202 193 190 191 198 217 211 190 209 221 214 200 221 232 218 213 189 186 189 186 183 186 185 189
235 224 224 228 238 304 314 299 290 274 251 239 242 232 231 235 240 211 209 205 198 198 200 195 196 192 198 208 219 217 205 209 228 243 238 254 231 198 191 192 193 192 194 199 208
271 227 222 225 233 271 289 309 302 286 255 253 245 230 223 223 244 215 209 199 196 196 195 196 183 186 179 205 213 221 228 239 243 244 244 253 213 201 196 197 202 203 207 212 223
276 224 203 204 215 232 330 1 12 290 271 264 240 234 208 210 231 214 192 182 198 185 186 194 193 169 174 213 231 253 245 246 254 254 252 236 234 214 202 202 205 212 220 232 243